Track NAVSTAR 61 (USA 199) now! NAVSTAR 61 (USA 199) is classified as:
1 32384U 07062A 21107.68452267 -.00000075 00000-0 00000-0 0 9999 2 32384 56.3956 348.9258 0015499 125.5490 62.3141 2.00566492 97679